Regional Weather Roundup
Issued by NWS Green Bay, WI

Home | Current Version | Previous Version | Text Only | Print | Product List | Glossary On
Versions: 1 2 3 4 5 6 7 8 9 10 11 12 13 14 15 16 17 18 19 20 21 22 23 24 25 26 27 28 29 30 31 32 33 34 35 36 37 38 39 40 41 42 43 44 45 46 47 48 49 50
594
ASUS43 KGRB 221311
RWRGRB

NORTH-CENTRAL AND NORTHEAST WISCONSIN REGIONAL WEATHER ROUNDUP
NATIONAL WEATHER SERVICE GREEN BAY WI
700 AM CST THU FEB 22 2018

WIZ005-009-010>012-018-019-221400-
NORTH CENTRAL WISCONSIN

CITY           SKY/WX    TMP DP  RH WIND       PRES   REMARKS
IRONWOOD       FAIR     -10 -14  82 E3        30.63R
MANITOWISH WTR FAIR      -5  -8  85 CALM      30.59R
ARBOR VITAE    FAIR       2  -2  85 CALM      30.60R
EAGLE RIVER    FAIR       1  -4  79 CALM      30.60R
LAND O LAKES   FAIR      -4  -8  82 CALM      30.61R
RHINELANDER    FAIR       6   2  83 CALM      30.60S
PHILLIPS       FAIR      -1  -4  85 CALM      30.61R
ANTIGO         CLOUDY    10   5  82 NE3       30.61S
TOMAHAWK       MOCLDY     2  -1  85 CALM      30.62S
MERRILL        CLOUDY     6   2  84 CALM      30.63S
$$

WIZ013-073-221400-
NORTHEAST WISCONSIN

CITY           SKY/WX    TMP DP  RH WIND       PRES   REMARKS
IRON MOUNTAIN  MOCLDY     8   3  80 NW3       30.64R
MARINETTE      MOCLDY    16  10  77 N3        30.69R
OCONTO         MOCLDY    18  11  72 N3        30.68S
$$

WIZ017-030-035>037-045-221400-
CENTRAL WISCONSIN

CITY           SKY/WX    TMP DP  RH WIND       PRES   REMARKS
MEDFORD        CLOUDY     9   4  78 E6        30.59S WCI  -1
WAUSAU         MOCLDY     8   4  83 CALM      30.61S
MOSINEE        PTCLDY    10   7  85 E5        30.62F WCI   2
MARSHFIELD     CLOUDY    12   4  70 E8        30.59F WCI   0
WISC RAPIDS    CLOUDY    16   8  71 NE6       30.63F WCI   7
STEVENS POINT  CLOUDY    12   8  82 CALM      30.63S
WAUPACA        CLOUDY    20  11  69 N6        30.66R
SHAWANO        CLOUDY    17  10  74 N7        30.67R WCI   8
CLINTONVILLE   CLOUDY    17   9  70 N3        30.66S
WAUTOMA        CLOUDY    19  11  70 NE5       30.65R
$$

WIZ038-039-048-051-221400-
FOX VALLEY

CITY           SKY/WX    TMP DP  RH WIND       PRES   REMARKS
NWS GREEN BAY  CLOUDY    20  11  68 N8        30.66S
APPLETON       CLOUDY    19   9  63 N9        30.62S WCI   9
OSHKOSH        CLOUDY    21  12  68 N9        30.64R
FOND DU LAC    CLOUDY    22  13  68 NE9       30.63S
$$

WIZ022-050-052-221400-
EAST CENTRAL WISCONSIN

CITY           SKY/WX    TMP DP  RH WIND       PRES   REMARKS
EPHRAIM        CLOUDY    19  13  79 N7        30.66R WCI  10
WASHINGTON ISL CLOUDY    20  16  85 N5        30.68R
STURGEON BAY   CLOUDY    18  14  84 N6        30.67R WCI  10
MANITOWOC      CLOUDY    23  17  78 N6        30.65S
SHEBOYGAN      MOCLDY    24  18  77 N9        30.63R
$$

LMZ563-521-522-541>543-221400-
LAKESHORE

STATION/POSITION TIME  TEMP    WIND        PRES    VSBY  WAVE
                       AIR SEA DIR/SP/G                  HT/PER
                 (UTC) (F)     (DEG/KT/KT) (MB)    (MI)  (FT/S)
SHEBOYGAN LKSHOR 1300   29      30/ 11/ 12 1038.3R
KEWAUNEE LKSHORE 1242   22     310/  3/  6 1037.1R
NORTHPORT PIER   1240   21                 1038.6R
MENOMINEE LKSHOR 1242   17     310/  8/  9 1038.2R
$$




USA.gov is the U.S. government's official web portal to all federal, state and local government web resources and services.